Location: Milton Keynes
(52.0316°N, 0.7531°W)
Time: 04:54:15
(UTC+00:00)

Envisat - Pass Details

Date: 28 January 2019
Orbit: 764 x 766 km, 98.2° (Epoch: 20 February)

Event Time Altitude Azimuth Distance (km) Brightness Sun altitude
Rises 06:46:03 0° 22° (NNE) 3,246 6.3 -9.8°
Reaches altitude 10° 06:48:43 10° 35° (NE) 2,314 5.7 -9.4°
Maximum altitude 06:53:00 27° 92° (E) 1,461 5.4 -8.8°
Drops below altitude 10° 06:57:15 10° 149° (SSE) 2,299 6.3 -8.2°
Sets 06:59:53 0° 162° (SSE) 3,219 6.8 -7.8°
